Weather reports worldwide

Advertisment
Milano/Malpensa, Italy (16066): temperature & dewpoint: 22.03.2020 21:00:00 - 28.03.2020 21:00:00 (CET)Milano/Malpensa, Italy (16066): wind speed: 22.03.2020 21:00:00 - 28.03.2020 21:00:00 (CET)Milano/Malpensa, Italy (16066): wind direction: 22.03.2020 21:00:00 - 28.03.2020 21:00:00 (CET)Milano/Malpensa, Italy (16066): reduced air pressure: 22.03.2020 21:00:00 - 28.03.2020 21:00:00 (CET)Milano/Malpensa, Italy (16066): visibility: 22.03.2020 21:00:00 - 28.03.2020 21:00:00 (CET)Milano/Malpensa, Italy (16066): precipitation: 22.03.2020 21:00:00 - 28.03.2020 21:00:00 (CET)
Date & Time tt [°C] td [°C] ff [km/h] ff [kn] dd ppp [hPa] vv [km] rr [mm]
28.03.2020 21:00:00 - - - - - - - -
28.03.2020 20:00:00 14,0 4,0 5 3 SE - 10 -
28.03.2020 19:00:00 15,9 3,2 8 4 SSW 1012,9 10 -
28.03.2020 18:00:00 17,0 4,0 8 4 S - 10 -
28.03.2020 17:00:00 18,0 4,0 9 5 - - 10 -
28.03.2020 16:00:00 18,2 3,7 11 6 SW 1012,8 10 0,0
28.03.2020 15:00:00 18,0 3,0 13 7 SSW - 10 -
28.03.2020 14:00:00 17,0 3,0 11 6 W - 10 -
28.03.2020 13:00:00 16,9 3,1 13 7 SW 1014,7 10 -
28.03.2020 12:00:00 16,0 3,0 9 5 WSW - 10 -
28.03.2020 11:00:00 15,0 4,0 4 2 - - 10 -
28.03.2020 10:00:00 14,2 4,9 5 3 NNW 1016,2 10 0,0
28.03.2020 09:00:00 11,0 6,0 9 5 N - 10 -
28.03.2020 08:00:00 8,0 6,0 4 2 - - 10 -
28.03.2020 07:00:00 5,4 4,5 9 5 N 1016,2 10 -
28.03.2020 06:00:00 6,0 5,0 15 8 N - 10 -
28.03.2020 05:00:00 7,0 6,0 13 7 N - 10 -
28.03.2020 04:00:00 7,6 6,1 9 5 N 1017,1 10 0,0
28.03.2020 03:00:00 8,0 7,0 8 4 NNE - 10 -
28.03.2020 02:00:00 8,0 7,0 8 4 N - 10 -
28.03.2020 01:00:00 8,8 6,1 4 2 - 1018,3 10 -
28.03.2020 00:00:00 9,0 6,0 9 5 NNW - 10 -
27.03.2020 23:00:00 9,0 4,0 2 1 - - 10 -
27.03.2020 22:00:00 9,6 3,9 5 3 SSW 1018,5 10 0,0
27.03.2020 21:00:00 10,0 4,0 8 4 SW - 10 -
27.03.2020 20:00:00 11,0 4,0 11 6 WSW - 10 -
27.03.2020 19:00:00 11,3 2,7 11 6 SW 1016,7 10 -
27.03.2020 18:00:00 12,0 3,0 11 6 SW - 10 -
27.03.2020 17:00:00 12,0 2,0 13 7 WSW - 10 -
27.03.2020 16:00:00 12,1 3,3 15 8 WSW 1016,5 10 0,0
27.03.2020 15:00:00 13,0 3,0 16 9 SSW - 10 -
27.03.2020 14:00:00 12,0 3,0 11 6 SW - 10 -
27.03.2020 13:00:00 11,4 3,1 18 10 WSW 1017,4 10 -
27.03.2020 12:00:00 12,0 2,0 5 3 - - 10 -
27.03.2020 11:00:00 10,0 2,0 11 6 WSW - 10 -
27.03.2020 10:00:00 10,0 1,9 9 5 NW 1016,9 10 0,0
27.03.2020 09:00:00 8,0 1,0 8 4 N - 10 -
27.03.2020 08:00:00 6,0 2,0 5 3 N - 10 -
27.03.2020 07:00:00 5,0 1,7 8 4 N 1015,7 10 -
27.03.2020 06:00:00 5,0 1,0 9 5 N - 10 -
27.03.2020 05:00:00 5,0 1,0 9 5 N - 10 -
27.03.2020 04:00:00 4,8 1,4 8 4 N 1015,6 10 0,0
27.03.2020 03:00:00 5,0 1,0 8 4 N - 10 -
27.03.2020 02:00:00 5,0 1,0 11 6 N - 10 -
27.03.2020 01:00:00 4,7 0,5 16 9 N 1016,9 10 -
27.03.2020 00:00:00 5,0 0,0 13 7 N - 10 -
26.03.2020 23:00:00 4,0 1,0 8 4 N - 10 -
26.03.2020 22:00:00 4,7 -0,5 2 1 - 1017,4 10 0,0
26.03.2020 21:00:00 5,0 -1,0 5 3 S - 10 -
26.03.2020 20:00:00 5,0 -1,0 5 3 S - 10 -
26.03.2020 19:00:00 5,3 -2,3 9 5 SSW 1015,2 10 -
26.03.2020 18:00:00 6,0 -3,0 8 4 SSW - 10 -
26.03.2020 17:00:00 6,0 -3,0 9 5 SSW - 10 -
26.03.2020 16:00:00 6,9 -2,2 13 7 SSW 1015,2 10 0,0
26.03.2020 15:00:00 7,0 -3,0 16 9 SSW - 10 -
26.03.2020 14:00:00 7,0 -3,0 9 5 SW - 10 -
26.03.2020 13:00:00 7,4 -4,0 5 3 W 1015,6 10 -
26.03.2020 12:00:00 6,0 -3,0 4 2 - - 10 -
26.03.2020 11:00:00 6,0 -2,0 4 2 - - 10 -
26.03.2020 10:00:00 4,8 -1,5 8 4 N 1015,6 10 0,0
26.03.2020 09:00:00 3,0 -2,0 13 7 NNW - 10 -
26.03.2020 08:00:00 2,0 -5,0 9 5 WNW - 10 -
26.03.2020 07:00:00 -2,3 -3,8 9 5 N 1015,9 10 -
26.03.2020 06:00:00 -3,0 -3,0 5 3 NNE - 10 -
26.03.2020 05:00:00 -2,0 -4,0 8 4 N - 10 -
26.03.2020 04:00:00 -0,3 -4,8 2 1 N 1016,7 10 0,0
26.03.2020 03:00:00 2,0 -4,0 8 4 SSW - 10 -
26.03.2020 02:00:00 3,0 -1,0 5 3 SSW - 10 -
26.03.2020 01:00:00 2,7 0,1 8 4 NNE 1018,6 10 -
26.03.2020 00:00:00 3,0 -1,0 5 3 - - 10 -
25.03.2020 23:00:00 4,0 0,0 15 8 NNW - 10 -
25.03.2020 22:00:00 4,0 -0,9 8 4 NE 1020,0 10 0,0
25.03.2020 21:00:00 4,0 -1,0 11 6 ENE - 10 -
25.03.2020 20:00:00 4,0 -2,0 9 5 ENE - 10 -
25.03.2020 19:00:00 4,9 -2,9 15 8 ESE 1019,1 10 -
25.03.2020 18:00:00 6,0 -4,0 13 7 E - 10 -
25.03.2020 17:00:00 6,0 -3,0 11 6 E - 10 -
25.03.2020 16:00:00 6,1 -2,0 11 6 S 1018,9 10 0,0
25.03.2020 15:00:00 6,0 -3,0 18 10 SE - 10 -
25.03.2020 14:00:00 7,0 -5,0 5 3 NNW - 10 -
25.03.2020 13:00:00 7,5 -4,4 8 4 - 1019,8 10 -
25.03.2020 12:00:00 8,0 -5,0 15 8 NW - 10 -
25.03.2020 11:00:00 6,0 -4,0 11 6 NNW - 10 -
25.03.2020 10:00:00 5,3 -3,8 9 5 NNW 1021,5 10 0,0
25.03.2020 09:00:00 4,0 -3,0 8 4 NNE - 10 -
25.03.2020 08:00:00 3,0 -2,0 5 3 NNE - 10 -
25.03.2020 07:00:00 2,0 -2,6 8 4 NNE 1021,6 10 -
25.03.2020 06:00:00 1,0 -3,0 9 5 NNE - 10 -
25.03.2020 05:00:00 1,0 -4,0 9 5 N - 10 -
25.03.2020 04:00:00 -0,5 -4,7 13 7 N 1022,7 10 0,0
25.03.2020 03:00:00 -1,0 -5,0 11 6 N - 10 -
25.03.2020 02:00:00 2,0 -5,0 8 4 NE - 10 -
25.03.2020 01:00:00 3,9 -4,4 21 11 SE 1023,9 10 -
25.03.2020 00:00:00 4,0 -7,0 13 7 ESE - 10 -
24.03.2020 23:00:00 3,0 -6,0 5 3 NE - 10 -
24.03.2020 22:00:00 2,4 -6,9 4 2 ENE 1022,8 10 0,0
24.03.2020 21:00:00 5,0 -7,0 8 4 ESE - 10 -
24.03.2020 20:00:00 6,0 -7,0 8 4 SSE - 10 -
24.03.2020 19:00:00 8,0 -7,8 11 6 SSW 1022,0 10 -
24.03.2020 18:00:00 10,0 -8,0 16 9 SSW - 10 -
24.03.2020 17:00:00 11,0 -7,0 11 6 S - 10 -
24.03.2020 16:00:00 10,9 -7,1 15 8 SSW 1022,7 10 0,0
24.03.2020 15:00:00 11,0 -7,0 16 9 SW - 10 -
24.03.2020 14:00:00 11,0 -5,0 15 8 SW - 10 -
24.03.2020 13:00:00 9,8 -6,1 18 10 - 1024,8 10 -
24.03.2020 12:00:00 9,0 -6,0 5 3 - - 10 -
24.03.2020 11:00:00 9,0 -4,0 4 2 - - 10 -
24.03.2020 10:00:00 7,3 -3,4 15 8 WNW 1026,0 10 0,0
24.03.2020 09:00:00 6,0 -3,0 5 3 - - 10 -
24.03.2020 08:00:00 2,0 -2,0 11 6 N - 10 -
24.03.2020 07:00:00 -2,0 -4,3 15 8 NNE 1025,7 10 -
24.03.2020 06:00:00 -3,0 -5,0 5 3 N - 10 -
24.03.2020 05:00:00 0,0 -4,0 8 4 NNE - 10 -
24.03.2020 04:00:00 -1,1 -4,1 18 10 NNE 1026,1 10 0,0
24.03.2020 03:00:00 0,0 -4,0 8 4 NE - 10 -
24.03.2020 02:00:00 1,0 -4,0 9 5 N - 10 -
24.03.2020 01:00:00 2,7 -3,6 7 4 - 1027,1 10 -
24.03.2020 00:00:00 4,0 -3,0 5 3 NNE - 10 -
23.03.2020 23:00:00 5,0 -4,0 2 1 - - 10 -
23.03.2020 22:00:00 4,6 -4,2 10 6 NE 1026,6 10 0,0
23.03.2020 21:00:00 5,0 -4,0 5 3 NNE - 10 -
23.03.2020 20:00:00 5,0 -4,0 4 2 - - 10 -
23.03.2020 19:00:00 5,4 -5,7 10 6 W 1025,7 10 -
23.03.2020 18:00:00 6,0 -6,0 4 2 - - 10 -
23.03.2020 17:00:00 6,0 -6,0 4 2 - - 10 -
23.03.2020 16:00:00 5,7 -5,1 18 10 SSE 1026,3 10 0,0
23.03.2020 15:00:00 6,0 -6,0 5 3 S - 10 -
23.03.2020 14:00:00 6,0 -5,0 9 5 E - 10 -
23.03.2020 13:00:00 5,7 -5,5 15 8 ESE 1028,7 10 -
23.03.2020 12:00:00 5,0 -5,0 15 8 ESE - 10 -
23.03.2020 11:00:00 5,0 -5,0 18 10 ESE - 10 -
23.03.2020 10:00:00 4,5 -5,4 21 11 ESE 1029,1 10 0,0
23.03.2020 09:00:00 4,0 -5,0 24 13 ESE - 10 -
23.03.2020 08:00:00 5,0 -4,0 13 7 ESE - 10 -
23.03.2020 07:00:00 5,0 -4,7 15 8 E 1026,8 10 -
23.03.2020 06:00:00 5,0 -5,0 22 12 ESE - 10 -
23.03.2020 05:00:00 6,0 -4,0 18 10 ESE - 10 -
23.03.2020 04:00:00 6,7 -4,1 21 11 ESE 1025,1 10 0,0
23.03.2020 03:00:00 8,0 -2,0 18 10 ESE - 10 -
23.03.2020 02:00:00 9,0 -2,0 16 9 ESE - 10 -
23.03.2020 01:00:00 9,2 -1,4 26 14 ESE 1023,9 10 -
23.03.2020 00:00:00 10,0 2,0 21 11 SE - 10 -
22.03.2020 23:00:00 11,0 3,0 15 8 SE - 10 -
22.03.2020 22:00:00 11,2 3,8 13 7 SE 1021,4 10 0,0
22.03.2020 21:00:00 11,0 5,0 9 5 E - 10 -

tt = temperature
td = dewpoint
ff = wind speed
dd = wind direction
ppp = reduced air pressure
vv = visibility
rr = precipitation

Next stations